Powrót do katalogu

STARLINK-37833

AktywnyŁącznośćSSO
NORAD 69332·PAYLOAD·🇺🇸 United States

Wystrzelony Jun 3, 2026 z Vandenberg Space Force Base

Loading…

Następne Przeloty (najbliższe 24 godziny)

TLE

ŚwieżeSource: CelesTrak SupGP

Epoka: Sep 14, 2026, 22:52 UTC

1 69332C 26122D   26257.95326389  .00041974  00000+0  13032-2 0  2575
2 69332  97.2826 286.5967 0001065  99.5590 326.0669 15.33413499    16

Śledź STARLINK-37833 w czasie rzeczywistym z AllMySat

Download on the App Store